Location: ??
(35.5052°N, 139.7262°E)
Time: 16:58:50
(UTC+00:00)

Resurs 1-4 Rocket - Pass Details

Date: 20 June 2021
Orbit: 800 x 813 km, 98.6° (Epoch: 29 July)

Event Time Altitude Azimuth Distance (km) Brightness Sun altitude
Rises 16:26:04 0° 9° (N) 3,339 6.5 -26.2°
Reaches altitude 10° 16:28:25 10° 7° (N) 2,405 5.5 -26.0°
Maximum altitude 16:33:42 66° 286° (WNW) 885 2.1 -25.5°
Enters shadow 16:34:04 64° 261° (W) 899 2.1 -25.4°
